Torna al catalogo

QIANFAN-217

AttivoComunicazioniPO
NORAD 69816·PAYLOAD·🇨🇳 China

Lanciato Jul 4, 2026 da Taiyuan Satellite Launch Center

Loading…

Prossimi Passaggi (prossime 24 ore)

TLE

AggiornatoSource: Space-Track

Epoca: Sep 14, 2026, 13:06 UTC

1 69816U 26153S   26257.54590527 -.01866893  00000-0 -97294+0 0  9999
2 69816  88.9968 351.9749 0006752 333.0521  27.0317 14.18373675 10292

Traccia QIANFAN-217 in tempo reale con AllMySat

Download on the App Store